TA2R-16 Weather Reports


Display with metric or nautical units.
time (UTC)temp
F
wind
direction
speed
MPH
gust
MPH
rain 1hr
in
rain 24hr
in
rain mn
in
humidity
%
barometer
mb
20260906073004 102 0 0.0 0.0 0.00 0.00 0.00 24 1006.5
20260906070001 105 0 0.0 0.0 0.00 0.00 0.00 21 1006.2
20260906063002 107 0 0.0 0.0 0.00 0.00 0.00 19 1005.9
20260906060005 106 0 0.0 0.0 0.00 0.00 0.00 20 1005.6
20260906053004 104 0 0.0 0.0 0.00 0.00 0.00 22 1005.6
20260906050003 101 0 0.0 0.0 0.00 0.00 0.00 24 1005.5
20260906043019 97 0 0.0 0.0 0.00 0.00 0.00 28 1005.4
20260906040021 91 0 0.0 0.0 0.00 0.00 0.00 33 1005.1
20260906033012 88 0 0.0 0.0 0.00 0.00 0.00 36 1004.7
20260906030031 89 0 0.0 0.0 0.00 0.00 0.00 34 1004.7
20260906023024 91 0 0.0 0.0 0.00 0.00 0.00 33 1004.5
20260906020006 88 0 0.0 0.0 0.00 0.00 0.00 35 1004.5
20260906013034 89 0 0.0 0.0 0.00 0.00 0.00 35 1004.6
20260906010010 90 0 0.0 0.0 0.00 0.00 0.00 34 1004.4
20260906003016 90 0 0.0 0.0 0.00 0.00 0.00 35 1004.4
20260906000303 93 0 0.0 0.0 0.00 0.00 0.00 32 1004.5
20260905234721 91 0 0.0 0.0 0.00 0.00 0.00 34 1004.4
20260905233003 90 0 0.0 0.0 0.00 0.00 0.00 35 1004.6
20260905230004 91 0 0.0 0.0 0.00 0.00 0.00 34 1004.6
20260905223016 92 0 0.0 0.0 0.00 0.00 0.00 33 1004.7
20260905220017 90 0 0.0 0.0 0.00 0.00 0.00 34 1004.8
20260905213005 91 0 0.0 0.0 0.00 0.00 0.00 34 1005.0
20260905210005 91 0 0.0 0.0 0.00 0.00 0.00 34 1005.0
20260905203029 92 0 0.0 0.0 0.00 0.00 0.00 33 1005.2
20260905200005 92 0 0.0 0.0 0.00 0.00 0.00 34 1005.4
20260905193007 91 0 0.0 0.0 0.00 0.00 0.00 34 1005.4
20260905190015 92 0 0.0 0.0 0.00 0.00 0.00 33 1005.5
20260905183002 92 0 0.0 0.0 0.00 0.00 0.00 32 1005.6
20260905180002 92 0 0.0 0.0 0.00 0.00 0.00 31 1005.7
20260905173002 93 0 0.0 0.0 0.00 0.00 0.00 31 1005.4
20260905170002 94 0 0.0 0.0 0.00 0.00 0.00 29 1005.2
20260905163002 95 0 0.0 0.0 0.00 0.00 0.00 26 1004.9
20260905160004 97 0 0.0 0.0 0.00 0.00 0.00 24 1004.9
20260905153002 97 0 0.0 0.0 0.00 0.00 0.00 23 1005.0
20260905150002 98 0 0.0 0.0 0.00 0.00 0.00 21 1005.1
20260905143005 98 0 0.0 0.0 0.00 0.00 0.00 21 1005.1
20260905140005 98 0 0.0 0.0 0.00 0.00 0.00 21 1005.2
20260905133002 99 0 0.0 0.0 0.00 0.00 0.00 20 1005.3
20260905130001 99 0 0.0 0.0 0.00 0.00 0.00 21 1005.3
20260905123006 98 0 0.0 0.0 0.00 0.00 0.00 22 1005.5
20260905120002 99 0 0.0 0.0 0.00 0.00 0.00 22 1005.8
20260905113002 99 0 0.0 0.0 0.00 0.00 0.00 20 1005.9
20260905110004 99 0 0.0 0.0 0.00 0.00 0.00 22 1006.1
20260905103003 98 0 0.0 0.0 0.00 0.00 0.00 24 1006.3
20260905100002 98 0 0.0 0.0 0.00 0.00 0.00 24 1006.4
20260905093002 98 0 0.0 0.0 0.00 0.00 0.00 27 1006.5
20260905090004 99 0 0.0 0.0 0.00 0.00 0.00 27 1006.7
20260905083003 98 0 0.0 0.0 0.00 0.00 0.00 25 1006.9
20260905080003 99 0 0.0 0.0 0.00 0.00 0.00 26 1007.1